ASIASAT 5

Last updated on Thu Oct 30 2025 00:02:48 GMT+0000 (Coordinated Universal Time)

1 35696U 09042A 25302.49101115 -.00000298 00000+0 00000+0 0 9996 2 35696 0.0307 98.8983 0001586 108.6961 107.7806 1.00272100 59395
UTC large
Height (km)
Speed (km/s)
/
Latitude / Longitude
Inclination (degrees)
Orbital Period (minutes)
Azimuth
Elevation
Range (km)
Doppler Factor

Next 0 passes for location: London (51.5072 / 0.1276)

Sorry there are no passes over London.